Wind_Speed
15 15 15 16 17 18 20 22 24 26 28 30 31 33 35 37 38 40 42 42 44 45 46 46 47 47 48 48 48 48 48 49 49 49 48 48 47 46 45 45 44 44 44
14 14 15 17 18 20 22 24 26 29 31 33 36 38 40 42 44 46 48 49 49 50 50 51 51 51 51 51 51 51 51 51 51 52 51 51 50 49 49 48 47 47 47
15 16 16 17 19 20 23 25 28 31 34 37 39 42 44 46 49 50 52 55 55 56 55 56 56 55 55 54 54 53 54 54 54 54 54 54 53 52 52 52 51 51 50
19 20 20 21 23 24 26 29 32 35 38 40 43 45 47 50 52 54 56 58 59 60 60 60 59 59 58 58 57 57 57 57 58 58 58 57 57 56 55 55 55 54 53
25 25 25 27 28 30 32 35 38 40 43 45 47 48 50 53 55 57 60 61 63 63 63 64 62 61 61 61 60 59 59 60 60 61 61 61 60 60 60 59 59 58 57
29 30 31 32 34 36 38 40 43 45 47 49 50 52 54 56 58 60 62 64 66 66 66 65 63 62 61 60 60 60 59 60 60 60 61 62 63 64 64 64 63 62 61
32 33 35 37 38 40 42 45 47 49 51 52 53 55 57 59 61 63 65 66 67 66 65 63 61 59 57 57 55 54 53 53 54 55 57 59 61 64 65 67 67 67 66
36 37 39 41 42 44 46 48 50 52 54 55 57 58 59 60 62 63 63 62 62 61 58 56 53 52 51 49 48 47 48 49 50 52 53 55 57 60 64 66 68 69 70
39 41 43 45 47 49 50 51 52 54 57 58 59 59 59 59 60 59 58 54 51 49 49 48 48 47 46 47 47 47 47 48 49 51 52 54 55 56 59 63 66 68 70
44 46 47 48 49 51 53 54 55 57 58 59 60 60 59 58 56 54 51 48 44 43 44 45 45 46 47 48 49 49 50 50 51 52 53 54 55 55 57 59 61 63 66
50 50 51 52 53 54 54 56 57 58 59 59 60 60 59 57 54 52 48 46 43 43 43 45 47 48 50 51 52 53 53 54 55 55 55 54 54 55 55 56 58 59 60
53 53 53 54 54 54 55 57 58 59 59 59 59 59 58 56 54 51 49 48 47 46 47 49 51 53 54 56 56 57 57 57 57 57 56 55 55 54 54 55 56 57 57
53 52 52 53 54 54 56 58 58 59 59 59 58 58 57 56 54 53 53 52 52 52 53 55 57 59 60 61 62 62 61 60 60 58 56 55 55 54 54 55 55 56 56
51 51 52 53 53 55 57 57 58 58 58 58 58 57 57 56 56 56 56 57 58 58 59 60 62 63 65 66 66 65 64 62 60 58 56 55 55 55 54 54 54 54 55
52 52 53 54 56 56 57 56 57 57 58 58 58 58 57 57 57 59 60 62 63 64 64 63 63 64 66 67 66 65 63 61 59 56 55 54 54 54 54 54 53 53 54
53 53 54 55 55 56 55 56 56 57 57 58 58 58 58 59 60 61 63 64 66 67 67 65 63 60 60 62 62 60 58 56 54 53 52 51 51 51 51 51 51 51 51
53 53 53 54 54 55 55 56 56 57 58 58 59 59 60 61 62 63 64 65 65 65 64 61 59 55 53 53 53 53 51 49 48 47 47 46 47 47 48 47 47 47 47
53 52 52 53 54 55 55 56 56 57 58 59 59 60 61 62 63 63 62 61 59 57 56 52 50 48 46 45 45 45 43 43 42 41 41 41 41 42 42 43 43 43 44
51 52 52 53 53 54 55 56 57 58 58 59 60 61 61 61 60 58 56 53 50 48 46 44 41 40 39 39 39 38 38 37 36 35 34 34 36 37 37 38 39 40 41
51 52 52 52 53 54 55 56 57 58 59 59 60 60 59 57 53 49 45 43 41 40 38 35 33 32 32 33 33 32 31 30 29 28 28 29 30 31 33 35 37 38 40
51 51 51 52 53 54 55 56 57 58 58 58 57 55 52 48 44 41 39 37 35 33 30 28 27 27 27 27 26 25 24 23 22 22 22 24 25 27 29 31 34 36 38
50 50 51 52 54 55 56 56 57 57 56 54 51 47 44 42 40 38 35 33 30 27 25 24 23 22 22 21 19 18 17 16 16 17 19 20 22 24 27 29 32 34 37
49 50 51 53 54 55 55 55 55 54 51 48 45 42 41 40 37 34 31 28 25 22 21 20 19 18 16 14 12 10 10 11 12 14 15 17 19 21 24 27 30 32 35
49 50 52 53 54 54 53 52 50 47 45 43 41 39 37 34 32 29 25 22 19 17 16 14 13 10 8 6 5 5 6 7 8 10 12 14 16 19 21 24 27 30 34
49 51 51 51 51 51 49 46 43 41 40 38 37 34 30 28 25 21 17 14 12 11 9 7 5 3 1 2 2 3 3 4 6 7 10 12 14 17 19 21 23 26 29
49 49 49 49 47 45 41 39 37 36 35 32 30 27 24 19 15 11 8 6 5 3 2 2 2 3 4 4 4 3 2 2 4 6 7 10 11 12 14 16 18 21 25
Wind_Direction
309 307 305 304 305 305 305 304 303 301 300 298 296 294 291 290 288 286 285 283 281 279 278 276 274 273 271 269 268 267 266 265 264 263 262 262 261 260 258 257 257 257 257
308 305 304 305 305 306 307 307 307 305 303 301 299 297 294 292 290 287 285 283 280 278 277 275 274 273 271 270 268 267 266 265 264 263 263 262 261 260 260 258 257 256 256
309 306 306 305 306 307 309 310 310 308 306 303 299 296 293 291 289 286 284 282 280 278 276 275 274 273 271 270 268 267 266 265 264 263 263 262 261 260 260 259 257 257 256
305 303 302 302 303 304 307 309 311 310 308 305 301 297 294 290 288 285 282 280 278 277 276 274 273 272 271 270 269 267 266 265 264 263 262 261 261 260 259 258 257 256 256
301 300 299 299 299 300 302 305 306 307 306 304 301 297 294 290 287 284 281 279 277 276 274 273 271 271 271 270 270 268 266 265 264 263 262 261 260 259 258 257 256 255 254
296 296 297 296 296 297 299 301 302 303 303 302 299 297 294 291 288 285 282 280 278 276 274 273 272 270 270 269 269 268 267 266 265 264 262 261 260 259 257 255 254 253 253
293 294 295 294 294 295 297 299 300 301 302 301 299 297 294 292 289 286 284 282 280 278 275 273 272 271 270 269 267 266 266 266 266 264 263 262 260 258 257 256 254 253 252
292 293 294 295 294 295 296 299 299 300 300 300 298 297 294 292 290 289 286 283 281 278 276 273 272 271 269 267 266 265 265 266 266 266 265 264 262 260 257 256 254 253 251
296 295 295 296 296 296 297 298 299 299 299 298 298 297 295 293 292 290 288 285 282 278 275 272 271 269 267 266 266 265 265 266 266 266 266 265 264 262 259 256 254 253 250
300 299 299 299 298 297 297 298 298 298 298 298 297 297 295 294 292 291 288 285 281 277 274 273 271 270 268 268 267 267 267 268 268 268 267 266 264 263 260 257 255 253 251
301 301 301 301 300 299 298 298 298 298 298 297 296 295 294 292 291 288 286 283 280 278 275 273 272 272 271 271 270 269 270 270 270 269 268 266 264 262 260 257 254 252 250
301 302 302 302 300 299 298 298 297 297 296 295 295 293 292 290 288 286 284 283 281 279 277 276 275 274 273 273 272 272 272 271 271 270 268 267 264 262 259 256 252 250 248
302 302 303 302 300 298 297 296 296 295 295 294 293 292 290 289 287 286 285 283 282 281 279 278 277 276 275 274 274 273 272 271 270 269 268 266 264 261 258 254 250 248 245
303 303 304 303 300 298 296 296 295 295 294 293 292 291 290 288 287 286 285 284 283 282 281 280 279 278 276 275 274 274 272 271 269 268 267 265 263 260 256 252 248 246 244
305 304 303 301 299 298 297 296 296 295 295 294 293 292 290 289 288 287 286 285 284 283 282 281 281 279 277 276 274 273 271 270 268 266 265 263 261 258 254 250 246 244 243
305 303 302 300 299 298 298 297 296 295 295 294 294 293 292 291 289 289 288 287 286 285 284 283 282 280 277 275 273 271 269 268 266 265 263 260 257 254 251 247 244 243 241
303 302 301 300 299 299 298 297 297 296 296 295 295 294 293 292 291 291 290 289 288 287 286 284 283 280 277 274 271 269 267 266 264 262 259 255 252 250 247 244 242 240 237
302 302 301 300 300 299 299 298 298 297 297 297 296 295 295 294 294 293 292 291 289 288 287 286 284 281 277 273 270 268 267 265 263 260 256 252 249 246 243 240 238 236 234
302 301 301 301 301 300 300 299 299 299 299 298 298 298 297 297 296 294 293 291 289 288 288 287 284 280 276 273 270 269 267 265 262 258 253 248 245 242 239 236 234 232 232
302 302 302 302 302 301 301 302 302 302 301 301 301 300 299 298 297 296 293 292 290 290 289 287 285 281 277 274 272 269 267 263 259 254 249 245 242 238 235 234 232 232 231
303 303 303 303 304 304 304 304 304 304 303 303 302 301 300 299 298 296 294 292 292 291 289 289 286 283 278 274 273 270 265 259 254 248 242 239 237 235 234 234 233 233 232
304 305 305 306 306 307 307 307 307 306 305 304 303 302 301 299 299 297 294 292 292 290 289 289 288 284 280 276 272 266 259 252 245 240 237 237 238 238 238 238 238 236 234
306 307 308 309 309 309 309 309 308 307 306 305 304 303 301 300 298 296 294 291 290 288 289 289 285 282 279 274 267 258 249 241 238 237 239 242 244 245 245 244 242 239 236
309 310 311 311 311 312 312 311 310 308 308 307 306 305 304 301 298 295 292 287 287 287 288 286 282 279 274 266 250 235 231 233 236 243 246 247 250 251 250 248 246 242 238
311 312 313 313 314 314 314 312 311 311 311 311 310 309 308 304 300 295 290 284 284 286 283 277 276 268 249 183 168 178 200 220 234 244 253 257 259 257 254 251 247 242 238
313 313 314 316 316 315 315 314 315 316 316 316 316 315 314 312 306 299 291 281 278 272 232 192 158 127 123 122 122 127 148 196 240 255 261 265 264 259 257 250 245 243 238
Height
5857 5855 5853 5852 5850 5849 5847 5845 5843 5841 5839 5837 5835 5832 5830 5828 5825 5823 5820 5819 5816 5814 5812 5810 5808 5807 5806 5806 5805 5806 5806 5807 5808 5809 5810 5811 5812 5814 5815 5817 5818 5819 5820
5853 5851 5849 5848 5846 5844 5842 5839 5837 5835 5832 5829 5827 5824 5821 5818 5815 5812 5809 5806 5804 5802 5800 5798 5796 5795 5794 5793 5793 5793 5794 5794 5795 5796 5797 5799 5801 5802 5805 5807 5808 5810 5811
5849 5847 5845 5843 5840 5838 5835 5833 5830 5827 5825 5821 5818 5815 5811 5807 5804 5800 5796 5793 5790 5788 5786 5784 5782 5781 5780 5780 5780 5780 5780 5781 5782 5783 5784 5786 5788 5790 5792 5795 5797 5799 5801
5845 5842 5840 5837 5834 5831 5829 5826 5823 5819 5816 5812 5808 5804 5800 5796 5792 5788 5783 5779 5775 5773 5771 5769 5768 5766 5765 5765 5765 5765 5766 5766 5767 5768 5770 5772 5774 5776 5779 5781 5784 5787 5789
5839 5836 5834 5831 5827 5824 5821 5818 5814 5810 5806 5802 5798 5793 5788 5783 5779 5774 5769 5765 5760 5758 5755 5752 5752 5751 5750 5749 5749 5749 5750 5751 5752 5753 5755 5757 5759 5761 5764 5767 5770 5773 5776
5833 5830 5827 5823 5820 5816 5812 5809 5804 5800 5795 5790 5785 5780 5775 5769 5764 5758 5753 5748 5744 5741 5738 5736 5735 5735 5734 5734 5734 5733 5733 5734 5735 5737 5739 5741 5743 5745 5748 5751 5754 5757 5761
5825 5822 5819 5815 5811 5807 5802 5798 5793 5788 5783 5778 5772 5766 5760 5754 5748 5742 5736 5731 5727 5723 5721 5719 5719 5718 5718 5718 5718 5718 5718 5718 5719 5720 5722 5724 5726 5728 5731 5734 5737 5741 5745
5816 5813 5809 5805 5801 5796 5792 5787 5781 5775 5769 5763 5757 5751 5745 5739 5731 5725 5720 5714 5710 5706 5704 5703 5703 5703 5702 5702 5702 5704 5704 5704 5705 5705 5706 5707 5709 5711 5713 5716 5720 5724 5728
5806 5803 5798 5793 5789 5784 5779 5773 5768 5761 5755 5748 5741 5735 5729 5723 5716 5709 5703 5698 5694 5691 5689 5688 5688 5688 5688 5688 5689 5689 5690 5690 5690 5691 5691 5692 5693 5694 5695 5698 5702 5706 5710
5795 5791 5786 5781 5776 5770 5765 5759 5753 5747 5740 5733 5726 5719 5713 5706 5700 5696 5690 5686 5682 5679 5677 5676 5675 5675 5674 5674 5675 5675 5675 5676 5675 5676 5676 5676 5677 5678 5679 5681 5684 5688 5692
5782 5778 5773 5768 5762 5756 5751 5745 5738 5732 5725 5718 5711 5704 5697 5691 5686 5682 5679 5675 5671 5668 5666 5664 5662 5661 5660 5659 5660 5659 5660 5660 5659 5659 5659 5660 5660 5661 5663 5665 5668 5671 5675
5770 5765 5760 5754 5748 5742 5736 5730 5723 5717 5710 5703 5696 5689 5683 5678 5672 5668 5665 5661 5659 5657 5653 5650 5648 5646 5645 5643 5643 5643 5643 5643 5642 5642 5642 5643 5643 5645 5646 5649 5652 5655 5659
5757 5752 5746 5741 5734 5728 5721 5715 5708 5701 5695 5689 5682 5676 5669 5664 5659 5655 5651 5647 5644 5642 5639 5636 5632 5630 5627 5626 5624 5624 5624 5624 5624 5624 5625 5625 5626 5627 5629 5632 5636 5640 5644
5744 5738 5733 5726 5720 5714 5707 5700 5693 5687 5680 5674 5668 5662 5656 5650 5645 5641 5637 5632 5628 5626 5622 5619 5614 5610 5608 5606 5604 5604 5604 5604 5605 5606 5606 5607 5608 5610 5612 5615 5619 5624 5629
5731 5725 5719 5712 5706 5699 5692 5685 5679 5672 5665 5659 5653 5647 5642 5636 5631 5626 5621 5615 5611 5607 5604 5600 5595 5589 5586 5584 5583 5583 5583 5584 5585 5587 5587 5588 5590 5592 5595 5599 5603 5608 5614
5718 5711 5705 5698 5692 5685 5678 5671 5664 5657 5651 5644 5638 5632 5626 5621 5615 5609 5603 5597 5591 5586 5583 5579 5574 5569 5565 5563 5562 5562 5563 5564 5566 5568 5569 5570 5572 5574 5578 5583 5588 5593 5599
5705 5698 5691 5685 5678 5671 5664 5657 5650 5643 5636 5629 5623 5617 5611 5604 5598 5591 5584 5578 5572 5566 5562 5559 5554 5550 5547 5544 5544 5544 5545 5547 5549 5550 5551 5553 5555 5559 5563 5568 5573 5579 5585
5692 5685 5679 5672 5665 5658 5651 5644 5636 5629 5622 5615 5608 5601 5594 5586 5579 5572 5565 5559 5553 5547 5543 5540 5537 5533 5531 5529 5529 5529 5530 5532 5533 5535 5536 5539 5541 5545 5550 5555 5561 5567 5573
5680 5673 5666 5659 5652 5645 5637 5630 5622 5614 5607 5599 5591 5584 5576 5569 5562 5555 5548 5543 5537 5533 5528 5525 5523 5519 5517 5516 5516 5517 5518 5519 5520 5522 5524 5527 5530 5534 5539 5545 5550 5556 5563
5667 5661 5654 5646 5639 5631 5624 5615 5607 5599 5591 5583 5575 5567 5559 5552 5546 5540 5534 5529 5525 5521 5517 5514 5511 5509 5507 5506 5506 5507 5508 5508 5510 5512 5515 5518 5521 5526 5530 5536 5542 5547 5553
5655 5649 5641 5633 5625 5618 5610 5601 5592 5584 5576 5568 5560 5551 5544 5538 5532 5527 5523 5518 5514 5511 5508 5505 5503 5500 5499 5498 5498 5499 5499 5500 5502 5505 5508 5511 5515 5519 5523 5528 5533 5538 5543
5643 5636 5628 5620 5611 5604 5595 5586 5577 5568 5560 5553 5545 5538 5532 5526 5521 5516 5512 5508 5505 5503 5500 5498 5496 5494 5493 5492 5492 5493 5494 5495 5498 5501 5504 5507 5510 5513 5517 5520 5524 5528 5533
5631 5623 5615 5606 5597 5589 5581 5572 5563 5554 5547 5539 5533 5526 5520 5515 5510 5506 5502 5499 5498 5496 5494 5492 5491 5489 5488 5488 5488 5489 5491 5493 5495 5498 5500 5503 5505 5507 5510 5512 5515 5518 5522
5618 5610 5602 5593 5584 5576 5568 5559 5550 5542 5535 5528 5522 5515 5510 5504 5499 5496 5494 5493 5492 5491 5489 5488 5487 5486 5486 5486 5487 5488 5490 5492 5494 5496 5497 5499 5500 5501 5502 5504 5506 5508 5511
5605 5598 5590 5582 5573 5564 5556 5548 5540 5532 5525 5518 5512 5506 5500 5495 5491 5489 5488 5487 5487 5487 5486 5486 5486 5486 5486 5486 5487 5489 5490 5492 5493 5494 5494 5495 5495 5495 5495 5496 5496 5498 5500
5594 5587 5579 5571 5563 5555 5547 5539 5532 5524 5517 5510 5504 5498 5493 5489 5487 5485 5484 5485 5485 5485 5485 5486 5486 5487 5487 5488 5489 5490 5491 5492 5492 5492 5492 5492 5491 5490 5489 5489 5489 5489 5490